Regional Weather Roundup
Issued by NWS Newport/Morehead, NC

Current Version | Previous Version | Graphics & Text | Print | Product List | Glossary On
Versions: 1 2 3 4 5 6 7 8 9 10 11 12 13 14 15 16 17 18 19 20 21 22 23 24 25 26 27 28 29 30 31 32 33 34 35 36 37 38 39 40 41 42 43 44 45 46 47 48 49 50
963 ASUS42 KMHX 261613 RWRMHX WEATHER ROUNDUP FOR EASTERN NORTH CAROLINA NATIONAL WEATHER SERVICE NEWPORT/MOREHEAD CITY NC 1200 PM EDT FRI AUG 26 2016 NOTE: "FAIR" INDICATES FEW OR NO CLOUDS BELOW 12,000 FEET WITH NO SIGNIFICANT WEATHER AND/OR OBSTRUCTIONS TO VISIBILITY NCZ015>017-031-032-045>047-102-103-261700- NORTH COAST CITY SKY/WX TMP DP RH WIND PRES REMARKS EDENTON SUNNY 87 70 57 SW5 30.10F ELIZABETH CITY SUNNY 89 72 56 S7 30.09F KITTY HAWK MOSUNNY 91 76 61 SW5 30.09F HX 102 MANTEO MOSUNNY 84 71 64 SW8 30.10F $$ NCZ045>047-081-094-103-104-261700- CENTRAL COAST CITY SKY/WX TMP DP RH WIND PRES REMARKS FRISCO SUNNY 85 69 58 VRB5 30.12S $$ NCZ095-097-098-100-101-261700- SOUTHERN COAST CITY SKY/WX TMP DP RH WIND PRES REMARKS BEAUFORT PTSUNNY 84 71 65 SW5 30.11S CEDAR ISLAND NOT AVBL JACKSONVILLE PTSUNNY 85 70 60 E5 30.10F PINEY ISLAND NOT AVBL WILMINGTON PTSUNNY 85 70 60 CALM 30.11S $$ NCZ011>013-027>030-043-044-078>080-089-090>093-098-261700- COASTAL PLAIN CITY SKY/WX TMP DP RH WIND PRES REMARKS AHOSKIE SUNNY 85 74 69 CALM 30.09S CLINTON SUNNY 88 74 63 CALM 30.10F ELIZABETHTOWN SUNNY 88 72 58 SW5 30.10F GOLDSBORO SUNNY 89 73 58 VRB1 30.08F GREENVILLE MOSUNNY 90 73 58 SW7 30.11S HAVELOCK PTSUNNY 86 70 58 CALM 30.12S KENANSVILLE SUNNY 88 72 58 SW3 30.10F KINSTON SUNNY 88 72 58 SW3 30.11S NEW BERN SUNNY 87 70 56 CALM 30.12S RICHLANDS SUNNY 87 73 62 VRB3 30.11S ROCKY MOUNT MOSUNNY 89 74 60 CALM 30.09F WASHINGTON SUNNY 86 72 63 S6 30.10F WHITEVILLE SUNNY 86 71 60 W5 30.10F $$ AMZ130-135-150-152-154-156-158-170-250-252-270-ANZ085-086-088-633-658-670-261700- MARINE OBSERVATIONS STATION/POSITION TIME TEMP WIND PRES WAVE SWELL AIR SEA DIR/SP/G HT/PER HT/PER (UTC) (F) (DEG/KT/KT) (MB) (FT/S) (FT/S) CHESAPEAKE LIGHT NOT AVBL 64 E VA BEACH 1550 80 80 220/ 12/ 14 1018.8 2/ 8 2/ 8 DUCK 1500 81 77 220/ 11/ 13 1018.7 2 E DUCK 1511 79 N/A 2/ 8 OREGON INLET 1500 81 81 190/ 7/ 8 1019.6 13E OREGON INLT 1500 78 N/A 2/ 8 2/ 8 HATTERAS CG 1500 81 81 340/ 4/ 5 1019.7 DIAMOND BUOY 1550 81 85 20/ 2/ 4 1020.1 2/ 8 2/ 8 CAPE LOOKOUT 1600 83 110/ 4/ 4 1019.7 BEAUFORT LAB 1500 85 80 CALM / 3 1019.2 30 SE NEW RVR IN 1508 82 84 30/ 4/ 6 1019.9 30 SE NEW RVR IN 1525 85 N/A 2/ 8 27 SE WRIGHTSVLE 1508 82 83 40/ 4/ 6 1020.1 5 SE WRIGHTSVLE 1508 82 83 320/ 2/ 4 1021.1 225 S CAPE HAT 1550 82 84 70/ 21/ 27 1016.9 5/ 5 2/ 8 41 SE CHARLESTON 1550 82 83 30/ 10/ 12 1019.1 2/ 7 2/ 7 $$

USA.gov is the U.S. government's official web portal to all federal, state and local government web resources and services.